HST

Last updated on Wed Sep 17 2025 00:02:14 GMT+0000 (Coordinated Universal Time)

1 20580U 90037B 25259.35672833 .00007413 00000+0 26911-3 0 9990 2 20580 28.4678 146.5071 0002485 2.2490 357.8116 15.26335500746628
UTC large
Height (km)
Speed (km/s)
/
Latitude / Longitude
Inclination (degrees)
Orbital Period (minutes)
Azimuth
Elevation
Range (km)
Doppler Factor

Next 0 passes for location: London (51.5072 / 0.1276)

Sorry there are no passes over London.